Private Wetterstation Wechselburg
Wetterdaten: Donnerstag, 29.07.2021
Datum Zeit Temp. +2m Bodentemp. Temp.+5cm Temp. Wind Windchill X Diff Temp. Feuchte +2m Feuchte +5cm Luftdruck Regen Wind Richtung Richtung Sonnenschein Taupunkt Windchill Windben
29.07.2021 00:00 18,5 C 20,8 C 18,0 C 18,1 C 17,4 C 0,0 C 82 % 84 % 1012,1 hPa 0,0 l/m 0,0 km/h (0 Bft) SO 135 0 min 15,4 C 17,4 C 0,0 km/h (0 Bft)
29.07.2021 00:05 18,4 C 20,8 C 17,9 C 18,0 C 17,3 C 0,0 C 82 % 85 % 1012,1 hPa 0,0 l/m 0,0 km/h (0 Bft) SW 225 0 min 15,3 C 17,3 C 0,0 km/h (0 Bft)
29.07.2021 00:10 18,4 C 20,8 C 17,9 C 18,0 C 17,2 C 0,0 C 82 % 85 % 1012,1 hPa 0,0 l/m 0,0 km/h (0 Bft) S-SO 157 0 min 15,3 C 17,2 C 0,0 km/h (0 Bft)
29.07.2021 00:15 18,3 C 20,8 C 17,7 C 17,9 C 17,0 C 0,0 C 82 % 85 % 1011,9 hPa 0,0 l/m 0,0 km/h (0 Bft) S 180 0 min 15,2 C 17,0 C 0,0 km/h (0 Bft)
29.07.2021 00:20 18,2 C 20,8 C 17,7 C 17,8 C 16,9 C 0,0 C 82 % 85 % 1011,9 hPa 0,0 l/m 0,0 km/h (0 Bft) SW 225 0 min 15,1 C 16,9 C 0,0 km/h (0 Bft)
29.07.2021 00:25 18,2 C 20,8 C 17,7 C 17,8 C 16,9 C 0,0 C 83 % 85 % 1011,9 hPa 0,0 l/m 0,0 km/h (0 Bft) S 180 0 min 15,3 C 16,9 C 0,0 km/h (0 Bft)
29.07.2021 00:30 18,1 C 20,8 C 17,6 C 17,7 C 16,9 C 0,0 C 83 % 85 % 1011,9 hPa 0,0 l/m 0,0 km/h (0 Bft) S 180 0 min 15,2 C 16,9 C 0,0 km/h (0 Bft)
29.07.2021 00:35 18,0 C 20,8 C 17,6 C 17,6 C 16,8 C 0,0 C 83 % 86 % 1012,0 hPa 0,0 l/m 0,0 km/h (0 Bft) W-SW 247 0 min 15,1 C 16,8 C 0,0 km/h (0 Bft)
29.07.2021 00:40 18,0 C 20,8 C 17,5 C 17,6 C 16,7 C 0,0 C 83 % 86 % 1012,0 hPa 0,0 l/m 0,0 km/h (0 Bft) SW 225 0 min 15,1 C 16,7 C 0,0 km/h (0 Bft)
29.07.2021 00:45 17,9 C 20,8 C 17,5 C 17,5 C 16,7 C 0,0 C 83 % 86 % 1012,0 hPa 0,0 l/m 0,0 km/h (0 Bft) S 180 0 min 15,0 C 16,7 C 0,0 km/h (0 Bft)
29.07.2021 00:50 17,9 C 20,8 C 17,5 C 17,5 C 16,7 C 0,0 C 83 % 86 % 1012,0 hPa 0,0 l/m 0,0 km/h (0 Bft) S 180 0 min 15,0 C 16,7 C 0,0 km/h (0 Bft)
29.07.2021 00:55 17,8 C 20,8 C 17,4 C 17,4 C 16,6 C 0,0 C 83 % 86 % 1011,9 hPa 0,0 l/m 0,0 km/h (0 Bft) S 180 0 min 14,9 C 16,6 C 0,0 km/h (0 Bft)
29.07.2021 01:00 17,9 C 20,8 C 17,4 C 17,4 C 16,5 C 0,0 C 83 % 86 % 1011,9 hPa 0,0 l/m 0,0 km/h (0 Bft) SO 135 0 min 15,0 C 16,5 C 0,0 km/h (0 Bft)
29.07.2021 01:05 17,7 C 20,8 C 17,3 C 17,3 C 16,4 C 0,0 C 83 % 86 % 1011,9 hPa 0,0 l/m 0,0 km/h (0 Bft) O-NO 67 0 min 14,8 C 16,4 C 0,0 km/h (0 Bft)
29.07.2021 01:10 17,6 C 20,9 C 17,2 C 17,1 C 16,2 C 0,0 C 83 % 86 % 1011,9 hPa 0,0 l/m 0,0 km/h (0 Bft) SW 225 0 min 14,7 C 16,2 C 0,0 km/h (0 Bft)
29.07.2021 01:15 17,7 C 20,9 C 17,1 C 17,2 C 16,2 C 0,0 C 84 % 86 % 1011,9 hPa 0,0 l/m 0,0 km/h (0 Bft) S 180 0 min 15,0 C 16,2 C 0,0 km/h (0 Bft)
29.07.2021 01:20 17,6 C 20,9 C 17,0 C 17,1 C 16,1 C 0,0 C 84 % 86 % 1011,9 hPa 0,0 l/m 0,0 km/h (0 Bft) S 180 0 min 14,9 C 16,1 C 0,0 km/h (0 Bft)
29.07.2021 01:25 17,5 C 20,9 C 16,9 C 17,0 C 16,0 C 0,0 C 84 % 86 % 1011,9 hPa 0,0 l/m 0,0 km/h (0 Bft) S 180 0 min 14,8 C 16,0 C 0,0 km/h (0 Bft)
29.07.2021 01:30 17,4 C 20,9 C 16,8 C 16,9 C 16,0 C 0,0 C 84 % 87 % 1011,9 hPa 0,0 l/m 0,0 km/h (0 Bft) SW 225 0 min 14,7 C 16,0 C 0,0 km/h (0 Bft)
29.07.2021 01:35 17,5 C 20,9 C 16,8 C 17,0 C 15,9 C 0,0 C 84 % 87 % 1011,8 hPa 0,0 l/m 0,0 km/h (0 Bft) S 180 0 min 14,8 C 15,9 C 0,0 km/h (0 Bft)
29.07.2021 01:40 17,3 C 20,9 C 16,7 C 16,8 C 15,9 C 0,0 C 84 % 87 % 1011,8 hPa 0,0 l/m 0,0 km/h (0 Bft) S 180 0 min 14,6 C 15,9 C 0,0 km/h (0 Bft)
29.07.2021 01:45 17,3 C 20,9 C 16,7 C 16,8 C 15,8 C 0,0 C 84 % 87 % 1011,8 hPa 0,0 l/m 0,0 km/h (0 Bft) SW 225 0 min 14,6 C 15,8 C 0,0 km/h (0 Bft)
29.07.2021 01:50 17,3 C 20,9 C 16,7 C 16,8 C 15,9 C 0,0 C 84 % 87 % 1011,8 hPa 0,0 l/m 0,0 km/h (0 Bft) SW 225 0 min 14,6 C 15,9 C 0,0 km/h (0 Bft)
29.07.2021 01:55 17,2 C 20,8 C 16,8 C 16,8 C 15,9 C 0,0 C 85 % 87 % 1011,6 hPa 0,0 l/m 0,0 km/h (0 Bft) S-SW 202 0 min 14,7 C 15,9 C 0,0 km/h (0 Bft)
29.07.2021 02:00 17,2 C 20,8 C 16,8 C 16,8 C 15,9 C 0,0 C 85 % 87 % 1011,6 hPa 0,0 l/m 0,0 km/h (0 Bft) SO 135 0 min 14,7 C 15,9 C 0,0 km/h (0 Bft)
29.07.2021 02:05 17,2 C 20,8 C 16,7 C 16,7 C 15,8 C 0,0 C 85 % 87 % 1011,6 hPa 0,0 l/m 0,0 km/h (0 Bft) SW 225 0 min 14,7 C 15,8 C 0,0 km/h (0 Bft)
29.07.2021 02:10 17,1 C 20,8 C 16,7 C 16,6 C 15,7 C 0,0 C 85 % 87 % 1011,6 hPa 0,0 l/m 0,0 km/h (0 Bft) S 180 0 min 14,6 C 15,7 C 0,0 km/h (0 Bft)
29.07.2021 02:15 17,0 C 20,8 C 16,7 C 16,6 C 15,7 C 0,0 C 85 % 87 % 1011,4 hPa 0,0 l/m 0,0 km/h (0 Bft) SW 225 0 min 14,5 C 15,7 C 0,0 km/h (0 Bft)
29.07.2021 02:20 17,1 C 20,8 C 16,7 C 16,7 C 15,8 C 0,0 C 85 % 87 % 1011,4 hPa 0,0 l/m 0,0 km/h (0 Bft) S-SO 157 0 min 14,6 C 15,8 C 0,0 km/h (0 Bft)
29.07.2021 02:25 17,1 C 20,8 C 16,7 C 16,7 C 15,9 C 0,0 C 85 % 87 % 1011,4 hPa 0,0 l/m 0,0 km/h (0 Bft) S-SW 202 0 min 14,6 C 15,9 C 0,0 km/h (0 Bft)
29.07.2021 02:30 17,0 C 20,8 C 16,6 C 16,6 C 15,8 C 0,0 C 85 % 87 % 1011,4 hPa 0,0 l/m 0,0 km/h (0 Bft) S-SW 202 0 min 14,5 C 15,8 C 0,0 km/h (0 Bft)
29.07.2021 02:35 16,9 C 20,8 C 16,5 C 16,5 C 15,7 C 0,0 C 85 % 87 % 1011,4 hPa 0,0 l/m 0,0 km/h (0 Bft) S 180 0 min 14,4 C 15,7 C 0,0 km/h (0 Bft)
29.07.2021 02:40 16,9 C 20,8 C 16,5 C 16,5 C 15,7 C 0,0 C 85 % 87 % 1011,4 hPa 0,0 l/m 0,0 km/h (0 Bft) S 180 0 min 14,4 C 15,7 C 0,0 km/h (0 Bft)
29.07.2021 02:45 16,9 C 20,8 C 16,3 C 16,4 C 15,5 C 0,0 C 85 % 88 % 1011,4 hPa 0,0 l/m 0,0 km/h (0 Bft) O-NO 67 0 min 14,4 C 15,5 C 0,0 km/h (0 Bft)
29.07.2021 02:50 16,8 C 20,8 C 16,3 C 16,4 C 15,6 C 0,0 C 86 % 88 % 1011,4 hPa 0,0 l/m 0,0 km/h (0 Bft) S-SO 157 0 min 14,4 C 15,6 C 0,0 km/h (0 Bft)
29.07.2021 02:55 16,7 C 20,8 C 16,3 C 16,3 C 15,5 C 0,0 C 86 % 88 % 1011,6 hPa 0,0 l/m 0,2 km/h (0 Bft) S 180 0 min 14,3 C 15,5 C 0,0 km/h (0 Bft)
29.07.2021 03:00 16,7 C 20,7 C 16,3 C 16,3 C 15,5 C 0,0 C 86 % 88 % 1011,6 hPa 0,0 l/m 0,0 km/h (0 Bft) S 180 0 min 14,3 C 15,5 C 2,3 km/h (1 Bft)
29.07.2021 03:05 16,7 C 20,7 C 16,3 C 16,4 C 15,7 C 0,0 C 86 % 88 % 1011,6 hPa 0,0 l/m 0,2 km/h (0 Bft) W-SW 247 0 min 14,3 C 15,7 C 1,6 km/h (1 Bft)
29.07.2021 03:10 16,7 C 20,7 C 16,4 C 16,4 C 15,9 C 0,0 C 86 % 88 % 1011,6 hPa 0,0 l/m 0,2 km/h (0 Bft) S 180 0 min 14,3 C 15,9 C 2,6 km/h (1 Bft)
29.07.2021 03:15 16,8 C 20,7 C 16,5 C 16,5 C 15,9 C 0,0 C 86 % 88 % 1011,4 hPa 0,0 l/m 0,3 km/h (0 Bft) SO 135 0 min 14,4 C 15,9 C 2,9 km/h (1 Bft)
29.07.2021 03:20 16,9 C 20,7 C 16,5 C 16,6 C 16,0 C 0,0 C 86 % 88 % 1011,4 hPa 0,0 l/m 0,6 km/h (0 Bft) S-SO 157 0 min 14,5 C 16,0 C 0,0 km/h (0 Bft)
29.07.2021 03:25 16,9 C 20,7 C 16,5 C 16,6 C 16,0 C 0,0 C 86 % 88 % 1011,4 hPa 0,0 l/m 0,5 km/h (0 Bft) SW 225 0 min 14,5 C 16,0 C 0,0 km/h (0 Bft)
29.07.2021 03:30 16,8 C 20,7 C 16,5 C 16,5 C 15,9 C 0,0 C 86 % 88 % 1011,4 hPa 0,0 l/m 0,3 km/h (0 Bft) SO 135 0 min 14,4 C 15,9 C 3,4 km/h (1 Bft)
29.07.2021 03:35 16,8 C 20,6 C 16,5 C 16,5 C 15,9 C 0,0 C 86 % 88 % 1011,2 hPa 0,0 l/m 0,2 km/h (0 Bft) SO 135 0 min 14,4 C 15,9 C 0,0 km/h (0 Bft)
29.07.2021 03:40 16,8 C 20,6 C 16,5 C 16,5 C 15,9 C 0,0 C 86 % 88 % 1011,2 hPa 0,0 l/m 0,2 km/h (0 Bft) W-SW 247 0 min 14,4 C 15,9 C 0,0 km/h (0 Bft)
29.07.2021 03:45 16,9 C 20,6 C 16,5 C 16,5 C 15,8 C 0,0 C 86 % 88 % 1011,2 hPa 0,0 l/m 0,0 km/h (0 Bft) S 180 0 min 14,5 C 15,8 C 0,0 km/h (0 Bft)
29.07.2021 03:50 16,9 C 20,6 C 16,5 C 16,5 C 15,7 C 0,0 C 86 % 88 % 1011,2 hPa 0,0 l/m 0,0 km/h (0 Bft) S 180 0 min 14,5 C 15,7 C 0,0 km/h (0 Bft)
29.07.2021 03:55 16,7 C 20,7 C 16,4 C 16,3 C 15,5 C 0,0 C 86 % 87 % 1011,1 hPa 0,0 l/m 0,0 km/h (0 Bft) S 180 0 min 14,3 C 15,5 C 0,0 km/h (0 Bft)
29.07.2021 04:00 16,7 C 20,7 C 16,2 C 16,3 C 15,4 C 0,0 C 86 % 87 % 1011,1 hPa 0,0 l/m 0,0 km/h (0 Bft) S 180 0 min 14,3 C 15,4 C 0,0 km/h (0 Bft)
29.07.2021 04:05 16,7 C 20,7 C 16,1 C 16,2 C 15,2 C 0,0 C 86 % 88 % 1011,1 hPa 0,0 l/m 0,0 km/h (0 Bft) O-SO 112 0 min 14,3 C 15,2 C 0,0 km/h (0 Bft)
29.07.2021 04:10 16,5 C 20,6 C 16,0 C 16,1 C 15,2 C 0,0 C 85 % 88 % 1011,1 hPa 0,0 l/m 0,0 km/h (0 Bft) S-SO 157 0 min 14,0 C 15,2 C 0,0 km/h (0 Bft)
29.07.2021 04:15 16,4 C 20,6 C 15,9 C 16,0 C 15,2 C 0,0 C 85 % 88 % 1011,1 hPa 0,0 l/m 0,0 km/h (0 Bft) S 180 0 min 13,9 C 15,2 C 0,0 km/h (0 Bft)
29.07.2021 04:20 16,4 C 20,6 C 15,9 C 16,0 C 15,2 C 0,0 C 85 % 88 % 1011,1 hPa 0,0 l/m 0,2 km/h (0 Bft) W-SW 247 0 min 13,9 C 15,2 C 0,0 km/h (0 Bft)
29.07.2021 04:25 16,5 C 20,6 C 16,1 C 16,1 C 15,3 C 0,0 C 85 % 88 % 1011,1 hPa 0,0 l/m 0,2 km/h (0 Bft) SW 225 0 min 14,0 C 15,3 C 0,0 km/h (0 Bft)
29.07.2021 04:30 16,4 C 20,6 C 16,0 C 16,0 C 15,3 C 0,0 C 85 % 88 % 1011,1 hPa 0,0 l/m 0,0 km/h (0 Bft) S-SW 202 0 min 13,9 C 15,3 C 0,0 km/h (0 Bft)
29.07.2021 04:35 16,4 C 20,6 C 15,9 C 16,0 C 15,2 C 0,0 C 85 % 88 % 1011,4 hPa 0,0 l/m 0,0 km/h (0 Bft) S 180 0 min 13,9 C 15,2 C 0,0 km/h (0 Bft)
29.07.2021 04:40 16,4 C 20,6 C 16,0 C 16,0 C 15,2 C 0,0 C 86 % 88 % 1011,4 hPa 0,0 l/m 0,0 km/h (0 Bft) W 270 0 min 14,1 C 15,2 C 0,0 km/h (0 Bft)
29.07.2021 04:45 16,4 C 20,6 C 16,0 C 16,0 C 15,1 C 0,0 C 86 % 88 % 1011,4 hPa 0,0 l/m 0,0 km/h (0 Bft) W-NW 292 0 min 14,1 C 15,1 C 0,0 km/h (0 Bft)
29.07.2021 04:50 16,4 C 20,6 C 16,0 C 16,0 C 15,1 C 0,0 C 86 % 88 % 1011,4 hPa 0,0 l/m 0,0 km/h (0 Bft) N-NO 22 0 min 14,1 C 15,1 C 0,0 km/h (0 Bft)
29.07.2021 04:55 16,3 C 20,5 C 16,1 C 16,0 C 15,3 C 0,0 C 86 % 88 % 1011,4 hPa 0,0 l/m 0,2 km/h (0 Bft) S 180 0 min 14,0 C 15,3 C 2,7 km/h (1 Bft)
29.07.2021 05:00 16,3 C 20,5 C 16,2 C 16,1 C 15,6 C 0,0 C 86 % 88 % 1011,4 hPa 0,0 l/m 0,2 km/h (0 Bft) S 180 0 min 14,0 C 15,6 C 0,0 km/h (0 Bft)
29.07.2021 05:05 16,4 C 20,5 C 16,3 C 16,2 C 15,9 C 0,0 C 86 % 88 % 1011,4 hPa 0,0 l/m 0,0 km/h (0 Bft) S 180 0 min 14,1 C 15,9 C 0,0 km/h (0 Bft)
29.07.2021 05:10 16,5 C 20,5 C 16,3 C 16,3 C 16,0 C 0,0 C 86 % 88 % 1011,4 hPa 0,0 l/m 0,0 km/h (0 Bft) S 180 0 min 14,1 C 16,0 C 0,0 km/h (0 Bft)
29.07.2021 05:15 16,4 C 20,5 C 16,3 C 16,3 C 16,0 C 0,0 C 86 % 88 % 1011,5 hPa 0,0 l/m 0,2 km/h (0 Bft) S 180 0 min 14,1 C 16,0 C 0,0 km/h (0 Bft)
29.07.2021 05:20 16,4 C 20,4 C 16,3 C 16,2 C 15,9 C 0,0 C 86 % 88 % 1011,5 hPa 0,0 l/m 0,0 km/h (0 Bft) S 180 0 min 14,1 C 15,9 C 0,0 km/h (0 Bft)
29.07.2021 05:25 16,5 C 20,4 C 16,3 C 16,3 C 15,9 C 0,0 C 86 % 88 % 1011,5 hPa 0,0 l/m 0,0 km/h (0 Bft) S 180 0 min 14,1 C 15,9 C 0,0 km/h (0 Bft)
29.07.2021 05:30 16,5 C 20,4 C 16,4 C 16,3 C 16,0 C 0,0 C 86 % 88 % 1011,5 hPa 0,0 l/m 0,0 km/h (0 Bft) W-SW 247 0 min 14,1 C 16,0 C 0,0 km/h (0 Bft)
29.07.2021 05:35 16,6 C 20,4 C 16,4 C 16,5 C 16,2 C 0,0 C 86 % 88 % 1011,8 hPa 0,0 l/m 0,0 km/h (0 Bft) S 180 0 min 14,2 C 16,2 C 0,0 km/h (0 Bft)
29.07.2021 05:40 16,7 C 20,4 C 16,4 C 16,6 C 16,3 C 0,0 C 86 % 88 % 1011,8 hPa 0,0 l/m 0,0 km/h (0 Bft) S 180 0 min 14,3 C 16,3 C 0,0 km/h (0 Bft)
29.07.2021 05:45 16,7 C 20,4 C 16,5 C 16,6 C 16,4 C 0,0 C 86 % 87 % 1011,8 hPa 0,0 l/m 0,2 km/h (0 Bft) S-SO 157 0 min 14,3 C 16,4 C 0,0 km/h (0 Bft)
29.07.2021 05:50 16,6 C 20,4 C 16,5 C 16,5 C 16,4 C 0,0 C 86 % 87 % 1011,8 hPa 0,0 l/m 0,2 km/h (0 Bft) SO 135 0 min 14,2 C 16,4 C 0,0 km/h (0 Bft)
29.07.2021 05:55 16,7 C 20,4 C 16,5 C 16,6 C 16,5 C 0,0 C 86 % 87 % 1011,6 hPa 0,0 l/m 0,2 km/h (0 Bft) O 90 0 min 14,3 C 16,5 C 0,0 km/h (0 Bft)
29.07.2021 06:00 16,8 C 20,4 C 16,5 C 16,7 C 16,6 C 0,0 C 86 % 87 % 1011,6 hPa 0,0 l/m 0,3 km/h (0 Bft) SW 225 0 min 14,4 C 16,6 C 0,0 km/h (0 Bft)
29.07.2021 06:05 16,9 C 20,3 C 16,6 C 16,8 C 16,7 C 0,0 C 86 % 87 % 1011,6 hPa 0,0 l/m 0,3 km/h (0 Bft) S 180 0 min 14,5 C 16,7 C 0,0 km/h (0 Bft)
29.07.2021 06:10 16,8 C 20,3 C 16,6 C 16,8 C 16,7 C 0,0 C 86 % 87 % 1011,6 hPa 0,0 l/m 0,2 km/h (0 Bft) S 180 0 min 14,4 C 16,7 C 1,6 km/h (1 Bft)
29.07.2021 06:15 16,9 C 20,3 C 16,7 C 16,9 C 16,9 C 0,0 C 86 % 87 % 1011,7 hPa 0,0 l/m 0,5 km/h (0 Bft) N-NW 337 0 min 14,5 C 16,9 C 0,0 km/h (0 Bft)
29.07.2021 06:20 17,0 C 20,3 C 16,7 C 17,0 C 16,9 C 0,0 C 85 % 86 % 1011,7 hPa 0,0 l/m 0,5 km/h (0 Bft) S 180 0 min 14,5 C 16,9 C 0,0 km/h (0 Bft)
29.07.2021 06:25 17,1 C 20,3 C 16,8 C 17,0 C 16,9 C 0,0 C 85 % 86 % 1011,7 hPa 0,0 l/m 0,3 km/h (0 Bft) S 180 0 min 14,6 C 16,9 C 0,0 km/h (0 Bft)
29.07.2021 06:30 17,1 C 20,3 C 16,8 C 17,0 C 16,9 C 0,0 C 85 % 86 % 1011,7 hPa 0,0 l/m 0,6 km/h (0 Bft) SW 225 0 min 14,6 C 16,9 C 2,6 km/h (1 Bft)
29.07.2021 06:35 17,1 C 20,3 C 16,9 C 17,0 C 16,9 C 0,0 C 85 % 86 % 1011,9 hPa 0,0 l/m 0,6 km/h (0 Bft) N-NW 337 0 min 14,6 C 16,9 C 0,0 km/h (0 Bft)
29.07.2021 06:40 17,2 C 20,3 C 16,9 C 17,1 C 16,9 C 0,0 C 85 % 86 % 1011,9 hPa 0,0 l/m 0,6 km/h (0 Bft) S-SW 202 0 min 14,7 C 16,9 C 4,0 km/h (1 Bft)
29.07.2021 06:45 17,3 C 20,3 C 16,9 C 17,2 C 17,0 C 0,0 C 84 % 86 % 1011,9 hPa 0,0 l/m 0,6 km/h (0 Bft) N-NO 22 0 min 14,6 C 17,0 C 0,0 km/h (0 Bft)
29.07.2021 06:50 17,2 C 20,3 C 16,9 C 17,1 C 16,9 C 0,0 C 84 % 86 % 1011,9 hPa 0,0 l/m 0,6 km/h (0 Bft) S-SW 202 0 min 14,5 C 16,9 C 5,0 km/h (1 Bft)
29.07.2021 06:55 17,2 C 20,2 C 17,3 C 17,1 C 17,0 C 0,0 C 84 % 86 % 1011,9 hPa 0,0 l/m 0,8 km/h (0 Bft) S-SO 157 0 min 14,5 C 17,0 C 0,0 km/h (0 Bft)
29.07.2021 07:00 17,3 C 20,2 C 17,5 C 17,2 C 17,0 C 0,0 C 84 % 85 % 1011,9 hPa 0,0 l/m 1,1 km/h (1 Bft) S-SO 157 0 min 14,6 C 17,0 C 5,0 km/h (1 Bft)
29.07.2021 07:05 17,5 C 20,2 C 17,9 C 17,4 C 17,3 C 0,0 C 84 % 85 % 1011,9 hPa 0,0 l/m 1,3 km/h (1 Bft) S-SW 202 0 min 14,8 C 17,3 C 0,0 km/h (0 Bft)
29.07.2021 07:10 17,5 C 20,2 C 18,1 C 17,5 C 17,5 C 0,0 C 84 % 83 % 1011,9 hPa 0,0 l/m 1,6 km/h (1 Bft) S-SO 157 0 min 14,8 C 17,5 C 6,6 km/h (2 Bft)
29.07.2021 07:15 17,6 C 20,1 C 18,4 C 20,5 C 20,5 C 2,9 C 84 % 83 % 1011,9 hPa 0,0 l/m 1,8 km/h (1 Bft) S 180 5 min 14,9 C 20,5 C 4,2 km/h (1 Bft)
29.07.2021 07:20 17,9 C 20,1 C 18,4 C 22,4 C 22,4 C 4,5 C 84 % 83 % 1011,9 hPa 0,0 l/m 1,4 km/h (1 Bft) S 180 5 min 15,2 C 22,4 C 7,4 km/h (2 Bft)
29.07.2021 07:25 18,3 C 20,1 C 18,5 C 24,1 C 24,1 C 5,8 C 84 % 82 % 1011,9 hPa 0,0 l/m 0,6 km/h (0 Bft) S-SW 202 5 min 15,5 C 24,1 C 2,1 km/h (1 Bft)
29.07.2021 07:30 18,7 C 20,1 C 18,5 C 25,0 C 25,0 C 6,3 C 83 % 82 % 1011,9 hPa 0,0 l/m 0,6 km/h (0 Bft) W 270 5 min 15,8 C 25,0 C 0,0 km/h (0 Bft)
29.07.2021 07:35 18,9 C 20,0 C 18,5 C 26,1 C 26,1 C 7,2 C 82 % 81 % 1011,8 hPa 0,0 l/m 0,5 km/h (0 Bft) O-SO 112 5 min 15,8 C 26,1 C 2,4 km/h (1 Bft)
29.07.2021 07:40 19,2 C 20,0 C 18,5 C 26,5 C 26,5 C 7,3 C 81 % 81 % 1011,8 hPa 0,0 l/m 0,5 km/h (0 Bft) S-SW 202 5 min 15,9 C 26,5 C 3,5 km/h (1 Bft)
29.07.2021 07:45 19,4 C 20,0 C 18,4 C 26,8 C 26,8 C 7,4 C 80 % 80 % 1011,8 hPa 0,0 l/m 1,1 km/h (1 Bft) N-NW 337 5 min 15,9 C 26,8 C 2,3 km/h (1 Bft)
29.07.2021 07:50 19,7 C 20,0 C 18,6 C 27,0 C 27,0 C 7,3 C 79 % 80 % 1011,8 hPa 0,0 l/m 1,4 km/h (1 Bft) SO 135 5 min 16,0 C 27,0 C 2,7 km/h (1 Bft)
29.07.2021 07:55 19,8 C 20,0 C 18,6 C 27,0 C 27,0 C 7,2 C 77 % 80 % 1011,8 hPa 0,0 l/m 1,9 km/h (1 Bft) S-SO 157 5 min 15,6 C 27,0 C 3,5 km/h (1 Bft)
29.07.2021 08:00 19,9 C 20,0 C 18,7 C 26,9 C 26,9 C 7,0 C 76 % 80 % 1011,8 hPa 0,0 l/m 2,3 km/h (1 Bft) W-SW 247 5 min 15,5 C 26,9 C 2,1 km/h (1 Bft)
29.07.2021 08:05 20,0 C 20,0 C 18,5 C 27,1 C 27,1 C 7,1 C 76 % 79 % 1011,8 hPa 0,0 l/m 2,3 km/h (1 Bft) S 180 5 min 15,6 C 27,1 C 3,1 km/h (1 Bft)
29.07.2021 08:10 20,1 C 20,0 C 18,6 C 27,1 C 27,1 C 7,0 C 75 % 78 % 1011,8 hPa 0,0 l/m 2,4 km/h (1 Bft) SO 135 5 min 15,5 C 27,1 C 8,0 km/h (2 Bft)
29.07.2021 08:15 20,3 C 20,0 C 18,6 C 27,2 C 27,2 C 6,9 C 74 % 77 % 1011,8 hPa 0,0 l/m 2,6 km/h (1 Bft) W-SW 247 5 min 15,5 C 27,2 C 5,0 km/h (1 Bft)
29.07.2021 08:20 20,3 C 20,0 C 18,7 C 27,1 C 27,1 C 6,8 C 73 % 77 % 1011,8 hPa 0,0 l/m 2,9 km/h (1 Bft) O-SO 112 5 min 15,3 C 27,1 C 6,1 km/h (2 Bft)
29.07.2021 08:25 20,2 C 20,0 C 18,7 C 27,1 C 27,1 C 6,9 C 72 % 76 % 1011,8 hPa 0,0 l/m 3,4 km/h (1 Bft) W-SW 247 5 min 15,0 C 27,1 C 3,1 km/h (1 Bft)
29.07.2021 08:30 20,3 C 20,0 C 18,7 C 27,1 C 27,1 C 6,8 C 71 % 76 % 1011,8 hPa 0,0 l/m 3,2 km/h (1 Bft) SO 135 5 min 14,9 C 27,1 C 8,7 km/h (2 Bft)
29.07.2021 08:35 20,4 C 19,9 C 18,7 C 27,4 C 27,4 C 7,0 C 71 % 75 % 1011,9 hPa 0,0 l/m 3,2 km/h (1 Bft) S 180 5 min 15,0 C 27,4 C 7,9 km/h (2 Bft)
29.07.2021 08:40 20,4 C 19,9 C 18,7 C 27,5 C 27,5 C 7,1 C 70 % 75 % 1011,9 hPa 0,0 l/m 3,2 km/h (1 Bft) SW 225 5 min 14,7 C 27,5 C 3,5 km/h (1 Bft)
29.07.2021 08:45 20,6 C 19,9 C 18,9 C 27,6 C 27,6 C 7,0 C 69 % 75 % 1011,9 hPa 0,0 l/m 3,5 km/h (1 Bft) SW 225 5 min 14,7 C 27,6 C 3,7 km/h (1 Bft)
29.07.2021 08:50 20,7 C 19,9 C 18,9 C 27,6 C 27,6 C 6,9 C 68 % 74 % 1011,9 hPa 0,0 l/m 3,5 km/h (1 Bft) SW 225 5 min 14,6 C 27,6 C 8,9 km/h (2 Bft)
29.07.2021 08:55 20,7 C 19,9 C 18,9 C 27,7 C 27,7 C 7,0 C 68 % 74 % 1012,2 hPa 0,0 l/m 3,4 km/h (1 Bft) S 180 5 min 14,6 C 27,7 C 4,8 km/h (1 Bft)
29.07.2021 09:00 20,7 C 19,9 C 19,0 C 27,7 C 27,7 C 7,0 C 67 % 73 % 1012,2 hPa 0,0 l/m 3,4 km/h (1 Bft) W 270 5 min 14,3 C 27,7 C 5,8 km/h (2 Bft)
29.07.2021 09:05 20,8 C 19,9 C 19,1 C 27,6 C 27,6 C 6,8 C 66 % 72 % 1012,2 hPa 0,0 l/m 3,7 km/h (1 Bft) SW 225 5 min 14,2 C 27,6 C 2,3 km/h (1 Bft)
29.07.2021 09:10 20,8 C 19,9 C 19,1 C 28,1 C 28,1 C 7,3 C 67 % 73 % 1012,2 hPa 0,0 l/m 3,1 km/h (1 Bft) S 180 5 min 14,4 C 28,1 C 12,9 km/h (3 Bft)
29.07.2021 09:15 21,2 C 19,9 C 19,2 C 26,7 C 26,7 C 5,5 C 67 % 73 % 1012,8 hPa 0,0 l/m 1,9 km/h (1 Bft) S 180 5 min 14,8 C 26,7 C 2,7 km/h (1 Bft)
29.07.2021 09:20 21,2 C 19,9 C 19,3 C 25,1 C 25,1 C 3,9 C 67 % 72 % 1012,8 hPa 0,0 l/m 2,6 km/h (1 Bft) N-NO 22 5 min 14,8 C 25,1 C 18,3 km/h (3 Bft)
29.07.2021 09:25 21,3 C 19,9 C 19,5 C 23,7 C 23,7 C 2,4 C 66 % 71 % 1012,8 hPa 0,0 l/m 2,6 km/h (1 Bft) O-NO 67 0 min 14,7 C 23,7 C 1,8 km/h (1 Bft)
29.07.2021 09:30 21,3 C 19,9 C 19,6 C 23,5 C 23,5 C 2,2 C 65 % 71 % 1012,8 hPa 0,0 l/m 2,7 km/h (1 Bft) SW 225 0 min 14,4 C 23,5 C 2,4 km/h (1 Bft)
29.07.2021 09:35 21,2 C 19,8 C 19,8 C 23,0 C 23,0 C 1,8 C 64 % 70 % 1012,1 hPa 0,0 l/m 3,1 km/h (1 Bft) SO 135 0 min 14,1 C 23,0 C 3,2 km/h (1 Bft)
29.07.2021 09:40 21,2 C 19,8 C 19,9 C 22,6 C 22,6 C 1,4 C 64 % 70 % 1012,1 hPa 0,0 l/m 3,1 km/h (1 Bft) S 180 0 min 14,1 C 22,6 C 2,1 km/h (1 Bft)
29.07.2021 09:45 21,2 C 19,8 C 19,9 C 22,5 C 22,5 C 1,3 C 63 % 69 % 1012,1 hPa 0,0 l/m 2,7 km/h (1 Bft) S 180 0 min 13,9 C 22,5 C 2,9 km/h (1 Bft)
29.07.2021 09:50 21,3 C 19,8 C 19,9 C 22,5 C 22,5 C 1,2 C 64 % 69 % 1012,1 hPa 0,0 l/m 2,9 km/h (1 Bft) SW 225 0 min 14,2 C 22,5 C 10,6 km/h (2 Bft)
29.07.2021 09:55 21,3 C 19,8 C 20,1 C 22,5 C 22,5 C 1,2 C 63 % 69 % 1011,8 hPa 0,0 l/m 3,5 km/h (1 Bft) SW 225 0 min 14,0 C 22,5 C 6,0 km/h (2 Bft)
29.07.2021 10:00 21,4 C 19,8 C 20,1 C 22,8 C 22,8 C 1,4 C 63 % 68 % 1011,8 hPa 0,0 l/m 3,7 km/h (1 Bft) S 180 0 min 14,1 C 22,8 C 5,1 km/h (1 Bft)
29.07.2021 10:05 21,5 C 19,8 C 20,2 C 22,9 C 22,9 C 1,4 C 62 % 66 % 1011,8 hPa 0,0 l/m 4,0 km/h (1 Bft) S-SO 157 0 min 13,9 C 22,9 C 4,2 km/h (1 Bft)
29.07.2021 10:10 21,5 C 19,8 C 20,4 C 23,8 C 23,8 C 2,3 C 61 % 66 % 1011,8 hPa 0,0 l/m 4,0 km/h (1 Bft) SW 225 0 min 13,7 C 23,8 C 4,5 km/h (1 Bft)
29.07.2021 10:15 21,6 C 19,8 C 20,6 C 23,8 C 23,8 C 2,2 C 61 % 66 % 1011,9 hPa 0,0 l/m 4,2 km/h (1 Bft) SW 225 0 min 13,7 C 23,8 C 5,8 km/h (2 Bft)
29.07.2021 10:20 21,7 C 19,8 C 20,5 C 23,8 C 23,8 C 2,1 C 61 % 65 % 1011,9 hPa 0,0 l/m 4,7 km/h (1 Bft) W 270 0 min 13,8 C 23,8 C 8,0 km/h (2 Bft)
29.07.2021 10:25 21,7 C 19,8 C 20,6 C 23,5 C 23,5 C 1,8 C 60 % 65 % 1011,9 hPa 0,0 l/m 4,2 km/h (1 Bft) S-SO 157 0 min 13,6 C 23,5 C 4,0 km/h (1 Bft)
29.07.2021 10:30 21,7 C 19,8 C 20,7 C 24,1 C 24,1 C 2,4 C 61 % 64 % 1011,9 hPa 0,0 l/m 3,7 km/h (1 Bft) S-SO 157 0 min 13,8 C 24,1 C 3,1 km/h (1 Bft)
29.07.2021 10:35 21,9 C 19,8 C 20,9 C 26,3 C 26,3 C 4,4 C 60 % 63 % 1011,6 hPa 0,0 l/m 3,5 km/h (1 Bft) W-SW 247 5 min 13,8 C 26,3 C 3,4 km/h (1 Bft)
29.07.2021 10:40 21,9 C 19,8 C 21,0 C 25,7 C 25,7 C 3,8 C 60 % 63 % 1011,6 hPa 0,0 l/m 4,0 km/h (1 Bft) SW 225 5 min 13,8 C 25,7 C 5,0 km/h (1 Bft)
29.07.2021 10:45 22,0 C 19,8 C 21,3 C 25,7 C 25,7 C 3,7 C 60 % 63 % 1011,6 hPa 0,0 l/m 4,0 km/h (1 Bft) W 270 5 min 13,9 C 25,7 C 3,9 km/h (1 Bft)
29.07.2021 10:50 22,1 C 19,8 C 21,4 C 26,1 C 26,1 C 4,0 C 60 % 63 % 1011,6 hPa 0,0 l/m 3,5 km/h (1 Bft) W-SW 247 5 min 14,0 C 26,1 C 9,5 km/h (2 Bft)
29.07.2021 10:55 22,1 C 19,8 C 21,2 C 25,1 C 25,1 C 3,0 C 60 % 62 % 1011,7 hPa 0,0 l/m 3,4 km/h (1 Bft) W-SW 247 0 min 14,0 C 25,1 C 2,3 km/h (1 Bft)
29.07.2021 11:00 22,0 C 19,8 C 21,1 C 24,3 C 24,3 C 2,3 C 60 % 63 % 1011,7 hPa 0,0 l/m 3,2 km/h (1 Bft) S-SO 157 0 min 13,9 C 24,3 C 3,5 km/h (1 Bft)
29.07.2021 11:05 22,1 C 19,8 C 21,4 C 25,2 C 25,2 C 3,1 C 61 % 63 % 1011,7 hPa 0,0 l/m 3,1 km/h (1 Bft) SO 135 0 min 14,2 C 25,2 C 4,5 km/h (1 Bft)
29.07.2021 11:10 22,1 C 19,8 C 21,5 C 25,2 C 25,2 C 3,1 C 61 % 62 % 1011,7 hPa 0,0 l/m 3,2 km/h (1 Bft) N-NO 22 0 min 14,2 C 25,2 C 6,3 km/h (2 Bft)
29.07.2021 11:15 22,1 C 19,8 C 21,5 C 24,7 C 24,7 C 2,6 C 59 % 61 % 1011,6 hPa 0,0 l/m 4,2 km/h (1 Bft) SW 225 0 min 13,7 C 24,7 C 11,9 km/h (2 Bft)
29.07.2021 11:20 22,0 C 19,8 C 21,3 C 24,1 C 24,1 C 2,1 C 59 % 61 % 1011,6 hPa 0,0 l/m 5,3 km/h (1 Bft) O-SO 112 0 min 13,6 C 24,1 C 6,1 km/h (2 Bft)
29.07.2021 11:25 21,9 C 19,8 C 21,5 C 24,0 C 24,0 C 2,1 C 60 % 61 % 1011,6 hPa 0,0 l/m 4,8 km/h (1 Bft) SW 225 0 min 13,8 C 24,0 C 5,0 km/h (1 Bft)
29.07.2021 11:30 22,1 C 19,8 C 21,7 C 24,2 C 24,2 C 2,1 C 60 % 62 % 1011,6 hPa 0,0 l/m 4,2 km/h (1 Bft) W-SW 247 0 min 14,0 C 24,2 C 2,6 km/h (1 Bft)
29.07.2021 11:35 22,4 C 19,8 C 22,1 C 25,0 C 25,0 C 2,6 C 59 % 60 % 1011,9 hPa 0,0 l/m 4,3 km/h (1 Bft) W-SW 247 0 min 14,0 C 25,0 C 3,9 km/h (1 Bft)
29.07.2021 11:40 22,5 C 19,8 C 22,3 C 25,3 C 25,3 C 2,8 C 58 % 58 % 1011,9 hPa 0,0 l/m 4,3 km/h (1 Bft) SO 135 0 min 13,8 C 25,3 C 3,7 km/h (1 Bft)
29.07.2021 11:45 22,7 C 19,8 C 22,3 C 25,5 C 25,5 C 2,8 C 57 % 58 % 1011,9 hPa 0,0 l/m 4,7 km/h (1 Bft) W-SW 247 0 min 13,7 C 25,5 C 2,6 km/h (1 Bft)
29.07.2021 11:50 22,7 C 19,8 C 22,4 C 25,4 C 25,4 C 2,7 C 57 % 57 % 1011,9 hPa 0,0 l/m 4,5 km/h (1 Bft) SO 135 0 min 13,7 C 25,4 C 4,8 km/h (1 Bft)
29.07.2021 11:55 22,8 C 19,9 C 22,4 C 25,2 C 25,2 C 2,4 C 57 % 59 % 1012,0 hPa 0,0 l/m 3,4 km/h (1 Bft) W-SW 247 0 min 13,8 C 25,2 C 5,0 km/h (1 Bft)
29.07.2021 12:00 23,1 C 19,9 C 22,6 C 25,5 C 25,5 C 2,4 C 55 % 57 % 1012,0 hPa 0,0 l/m 4,2 km/h (1 Bft) W-SW 247 0 min 13,6 C 25,5 C 9,0 km/h (2 Bft)
29.07.2021 12:05 23,1 C 19,9 C 22,8 C 25,8 C 25,8 C 2,7 C 55 % 56 % 1012,0 hPa 0,0 l/m 5,1 km/h (1 Bft) W 270 0 min 13,6 C 25,8 C 4,5 km/h (1 Bft)
29.07.2021 12:10 23,2 C 19,9 C 22,9 C 26,1 C 26,1 C 2,9 C 53 % 54 % 1012,0 hPa 0,0 l/m 5,0 km/h (1 Bft) SW 225 0 min 13,1 C 26,1 C 8,2 km/h (2 Bft)
29.07.2021 12:15 23,1 C 19,9 C 22,8 C 26,9 C 26,9 C 3,8 C 51 % 53 % 1012,1 hPa 0,0 l/m 6,3 km/h (2 Bft) S-SW 202 5 min 12,4 C 26,9 C 5,3 km/h (1 Bft)
29.07.2021 12:20 23,2 C 19,9 C 23,0 C 27,4 C 27,4 C 4,2 C 51 % 53 % 1012,1 hPa 0,0 l/m 6,3 km/h (2 Bft) SW 225 5 min 12,5 C 27,4 C 6,4 km/h (2 Bft)
29.07.2021 12:25 23,3 C 19,9 C 23,0 C 27,1 C 27,1 C 3,8 C 49 % 50 % 1012,1 hPa 0,0 l/m 5,8 km/h (2 Bft) NO 45 5 min 12,0 C 27,1 C 6,6 km/h (2 Bft)
29.07.2021 12:30 23,3 C 19,9 C 22,9 C 26,9 C 26,9 C 3,6 C 49 % 51 % 1012,1 hPa 0,0 l/m 5,8 km/h (2 Bft) S 180 5 min 12,0 C 26,9 C 4,8 km/h (1 Bft)
29.07.2021 12:35 23,2 C 19,9 C 22,7 C 26,2 C 26,2 C 3,0 C 50 % 51 % 1012,1 hPa 0,0 l/m 4,7 km/h (1 Bft) W 270 0 min 12,2 C 26,2 C 5,0 km/h (1 Bft)
29.07.2021 12:40 23,1 C 19,9 C 22,6 C 25,6 C 25,6 C 2,5 C 50 % 51 % 1012,1 hPa 0,0 l/m 4,3 km/h (1 Bft) S 180 0 min 12,1 C 25,6 C 5,5 km/h (1 Bft)
29.07.2021 12:45 23,1 C 19,9 C 22,7 C 25,6 C 25,6 C 2,5 C 50 % 52 % 1012,1 hPa 0,0 l/m 5,0 km/h (1 Bft) SW 225 0 min 12,1 C 25,6 C 12,2 km/h (2 Bft)
29.07.2021 12:50 23,2 C 19,9 C 22,6 C 25,9 C 25,9 C 2,7 C 50 % 52 % 1012,1 hPa 0,0 l/m 5,6 km/h (1 Bft) S-SW 202 0 min 12,2 C 25,9 C 8,2 km/h (2 Bft)
29.07.2021 12:55 23,1 C 19,9 C 22,5 C 25,4 C 25,4 C 2,3 C 50 % 52 % 1012,4 hPa 0,0 l/m 5,5 km/h (1 Bft) SW 225 0 min 12,1 C 25,4 C 3,4 km/h (1 Bft)
29.07.2021 13:00 23,0 C 19,9 C 22,6 C 25,0 C 25,0 C 2,0 C 51 % 53 % 1012,4 hPa 0,0 l/m 5,1 km/h (1 Bft) S 180 0 min 12,3 C 25,0 C 4,8 km/h (1 Bft)
29.07.2021 13:05 23,1 C 19,9 C 22,5 C 25,1 C 25,1 C 2,0 C 51 % 54 % 1012,4 hPa 0,0 l/m 4,8 km/h (1 Bft) S 180 0 min 12,4 C 25,1 C 6,1 km/h (2 Bft)
29.07.2021 13:10 23,1 C 19,9 C 22,5 C 25,1 C 25,1 C 2,0 C 51 % 54 % 1012,4 hPa 0,0 l/m 4,8 km/h (1 Bft) S 180 0 min 12,4 C 25,1 C 6,1 km/h (2 Bft)
29.07.2021 13:15 22,8 C 19,9 C 22,3 C 25,1 C 25,1 C 2,3 C 53 % 56 % 1012,3 hPa 0,0 l/m 3,4 km/h (1 Bft) W-SW 247 0 min 12,7 C 25,1 C 2,3 km/h (1 Bft)
29.07.2021 13:20 22,8 C 19,9 C 22,6 C 25,5 C 25,5 C 2,7 C 55 % 57 % 1012,3 hPa 0,0 l/m 2,6 km/h (1 Bft) S-SW 202 0 min 13,3 C 25,5 C 3,5 km/h (1 Bft)
29.07.2021 13:25 23,2 C 19,9 C 23,3 C 27,6 C 27,6 C 4,4 C 55 % 56 % 1012,3 hPa 0,0 l/m 2,9 km/h (1 Bft) SW 225 5 min 13,6 C 27,6 C 2,3 km/h (1 Bft)
29.07.2021 13:30 23,3 C 19,9 C 23,0 C 27,1 C 27,1 C 3,8 C 53 % 55 % 1012,3 hPa 0,0 l/m 3,9 km/h (1 Bft) S-SO 157 5 min 13,2 C 27,1 C 5,0 km/h (1 Bft)
29.07.2021 13:35 23,1 C 19,9 C 22,7 C 26,7 C 26,7 C 3,6 C 53 % 55 % 1012,4 hPa 0,0 l/m 4,0 km/h (1 Bft) W 270 5 min 13,0 C 26,7 C 4,2 km/h (1 Bft)
29.07.2021 13:40 23,2 C 19,9 C 22,8 C 26,6 C 26,6 C 3,4 C 52 % 55 % 1012,4 hPa 0,0 l/m 4,2 km/h (1 Bft) SW 225 5 min 12,8 C 26,6 C 10,3 km/h (2 Bft)
29.07.2021 13:45 23,6 C 19,9 C 23,2 C 27,2 C 27,2 C 3,6 C 51 % 52 % 1012,4 hPa 0,0 l/m 5,1 km/h (1 Bft) W-SW 247 5 min 12,9 C 27,2 C 7,6 km/h (2 Bft)
29.07.2021 13:50 23,7 C 19,9 C 23,1 C 27,2 C 27,2 C 3,5 C 49 % 50 % 1012,4 hPa 0,0 l/m 5,8 km/h (2 Bft) S-SO 157 5 min 12,3 C 27,2 C 6,1 km/h (2 Bft)
29.07.2021 13:55 23,5 C 19,9 C 23,0 C 26,4 C 26,4 C 2,9 C 48 % 50 % 1012,5 hPa 0,0 l/m 5,8 km/h (2 Bft) SW 225 0 min 11,8 C 26,4 C 8,4 km/h (2 Bft)
29.07.2021 14:00 23,4 C 19,9 C 23,1 C 26,5 C 26,5 C 3,1 C 48 % 50 % 1012,5 hPa 0,0 l/m 6,0 km/h (2 Bft) W-SW 247 0 min 11,8 C 26,5 C 7,4 km/h (2 Bft)
29.07.2021 14:05 23,6 C 19,9 C 23,5 C 26,9 C 26,9 C 3,3 C 46 % 47 % 1012,5 hPa 0,0 l/m 6,4 km/h (2 Bft) SW 225 5 min 11,3 C 26,9 C 10,9 km/h (2 Bft)
29.07.2021 14:10 23,8 C 19,9 C 23,6 C 27,5 C 27,5 C 3,7 C 46 % 47 % 1012,5 hPa 0,0 l/m 6,9 km/h (2 Bft) SW 225 5 min 11,5 C 27,5 C 9,2 km/h (2 Bft)
29.07.2021 14:15 23,8 C 19,9 C 23,7 C 27,2 C 27,2 C 3,4 C 47 % 48 % 1012,5 hPa 0,0 l/m 6,6 km/h (2 Bft) SW 225 5 min 11,8 C 27,2 C 4,3 km/h (1 Bft)
29.07.2021 14:20 24,0 C 19,9 C 23,7 C 27,4 C 27,4 C 3,4 C 48 % 49 % 1012,5 hPa 0,0 l/m 5,0 km/h (1 Bft) SW 225 5 min 12,3 C 27,4 C 4,2 km/h (1 Bft)
29.07.2021 14:25 24,2 C 20,0 C 24,1 C 28,2 C 28,2 C 4,0 C 47 % 49 % 1012,5 hPa 0,0 l/m 4,2 km/h (1 Bft) SO 135 5 min 12,2 C 28,2 C 5,0 km/h (1 Bft)
29.07.2021 14:30 24,5 C 19,9 C 24,1 C 28,8 C 28,8 C 4,3 C 47 % 48 % 1012,5 hPa 0,0 l/m 4,5 km/h (1 Bft) O-SO 112 5 min 12,4 C 28,8 C 2,9 km/h (1 Bft)
29.07.2021 14:35 24,4 C 20,0 C 23,9 C 28,3 C 28,3 C 3,9 C 45 % 47 % 1012,3 hPa 0,0 l/m 4,8 km/h (1 Bft) NW 315 5 min 11,7 C 28,3 C 4,7 km/h (1 Bft)
29.07.2021 14:40 24,3 C 20,0 C 23,5 C 27,4 C 27,4 C 3,1 C 46 % 48 % 1012,3 hPa 0,0 l/m 4,7 km/h (1 Bft) W-SW 247 0 min 11,9 C 27,4 C 3,9 km/h (1 Bft)
29.07.2021 14:45 24,3 C 20,0 C 24,1 C 27,4 C 27,4 C 3,1 C 46 % 48 % 1012,3 hPa 0,0 l/m 4,2 km/h (1 Bft) S-SO 157 0 min 11,9 C 27,4 C 4,8 km/h (1 Bft)
29.07.2021 14:50 24,5 C 19,9 C 24,2 C 28,2 C 28,2 C 3,7 C 46 % 47 % 1012,3 hPa 0,0 l/m 5,0 km/h (1 Bft) SW 225 5 min 12,1 C 28,2 C 9,8 km/h (2 Bft)
29.07.2021 14:55 24,5 C 19,9 C 24,3 C 28,6 C 28,6 C 4,1 C 46 % 48 % 1012,5 hPa 0,0 l/m 5,6 km/h (1 Bft) S 180 5 min 12,1 C 28,6 C 5,8 km/h (2 Bft)
29.07.2021 15:00 24,5 C 19,9 C 24,4 C 29,0 C 29,0 C 4,5 C 47 % 48 % 1012,5 hPa 0,0 l/m 5,0 km/h (1 Bft) S-SW 202 5 min 12,4 C 29,0 C 21,4 km/h (4 Bft)
29.07.2021 15:05 24,7 C 19,9 C 24,5 C 29,5 C 29,5 C 4,8 C 47 % 49 % 1012,5 hPa 0,0 l/m 3,1 km/h (1 Bft) S-SW 202 5 min 12,6 C 29,5 C 1,9 km/h (1 Bft)
29.07.2021 15:10 24,7 C 19,9 C 24,4 C 29,7 C 29,7 C 5,0 C 46 % 48 % 1012,5 hPa 0,0 l/m 3,2 km/h (1 Bft) O-NO 67 5 min 12,3 C 29,7 C 2,6 km/h (1 Bft)
29.07.2021 15:15 24,7 C 19,9 C 24,3 C 29,5 C 29,5 C 4,8 C 46 % 47 % 1012,2 hPa 0,0 l/m 3,9 km/h (1 Bft) S-SW 202 5 min 12,3 C 29,5 C 2,6 km/h (1 Bft)
29.07.2021 15:20 24,6 C 19,9 C 24,2 C 28,6 C 28,6 C 4,0 C 46 % 46 % 1012,2 hPa 0,0 l/m 3,5 km/h (1 Bft) S-SW 202 5 min 12,2 C 28,6 C 7,9 km/h (2 Bft)
29.07.2021 15:25 24,3 C 20,0 C 23,9 C 27,5 C 27,5 C 3,2 C 45 % 47 % 1012,2 hPa 0,0 l/m 3,5 km/h (1 Bft) W-SW 247 0 min 11,6 C 27,5 C 2,9 km/h (1 Bft)
29.07.2021 15:30 24,3 C 20,0 C 23,7 C 26,9 C 26,9 C 2,6 C 46 % 47 % 1012,2 hPa 0,0 l/m 3,9 km/h (1 Bft) SW 225 0 min 11,9 C 26,9 C 7,1 km/h (2 Bft)
29.07.2021 15:35 24,2 C 20,1 C 23,9 C 27,4 C 27,4 C 3,2 C 46 % 48 % 1013,4 hPa 0,0 l/m 3,2 km/h (1 Bft) S 180 0 min 11,8 C 27,4 C 5,1 km/h (1 Bft)
29.07.2021 15:40 24,5 C 20,1 C 24,1 C 28,3 C 28,3 C 3,8 C 46 % 46 % 1013,4 hPa 0,0 l/m 3,7 km/h (1 Bft) S 180 5 min 12,1 C 28,3 C 4,0 km/h (1 Bft)
29.07.2021 15:45 24,5 C 20,0 C 24,2 C 29,1 C 29,1 C 4,6 C 46 % 46 % 1013,4 hPa 0,0 l/m 4,0 km/h (1 Bft) S-SO 157 5 min 12,1 C 29,1 C 9,3 km/h (2 Bft)
29.07.2021 15:50 24,7 C 20,0 C 24,3 C 29,4 C 29,4 C 4,7 C 45 % 44 % 1013,4 hPa 0,0 l/m 4,0 km/h (1 Bft) S-SO 157 5 min 12,0 C 29,4 C 15,9 km/h (3 Bft)
29.07.2021 15:55 24,7 C 20,0 C 24,5 C 30,1 C 30,1 C 5,4 C 46 % 46 % 1013,8 hPa 0,0 l/m 3,4 km/h (1 Bft) W-SW 247 5 min 12,3 C 30,1 C 6,1 km/h (2 Bft)
29.07.2021 16:00 24,9 C 20,0 C 24,7 C 30,3 C 30,3 C 5,4 C 44 % 44 % 1013,8 hPa 0,0 l/m 3,9 km/h (1 Bft) S 180 5 min 11,8 C 30,3 C 6,3 km/h (2 Bft)
29.07.2021 16:05 24,8 C 20,0 C 24,3 C 29,4 C 29,4 C 4,6 C 43 % 43 % 1013,8 hPa 0,0 l/m 4,5 km/h (1 Bft) S 180 5 min 11,4 C 29,4 C 13,8 km/h (3 Bft)
29.07.2021 16:10 24,7 C 20,0 C 24,4 C 29,0 C 29,0 C 4,3 C 44 % 45 % 1013,8 hPa 0,0 l/m 3,9 km/h (1 Bft) S-SW 202 5 min 11,6 C 29,0 C 2,9 km/h (1 Bft)
29.07.2021 16:15 24,9 C 20,1 C 24,8 C 29,9 C 29,9 C 5,0 C 44 % 45 % 1013,9 hPa 0,0 l/m 3,4 km/h (1 Bft) S 180 5 min 11,8 C 29,9 C 3,2 km/h (1 Bft)
29.07.2021 16:20 25,2 C 20,1 C 24,9 C 30,5 C 30,5 C 5,3 C 44 % 46 % 1013,9 hPa 0,0 l/m 3,1 km/h (1 Bft) W-SW 247 5 min 12,1 C 30,5 C 4,3 km/h (1 Bft)
29.07.2021 16:25 24,9 C 20,1 C 24,3 C 28,7 C 28,7 C 3,8 C 43 % 44 % 1013,9 hPa 0,0 l/m 3,4 km/h (1 Bft) SW 225 5 min 11,4 C 28,7 C 3,5 km/h (1 Bft)
29.07.2021 16:30 24,6 C 20,1 C 24,1 C 27,6 C 27,6 C 3,0 C 43 % 44 % 1013,9 hPa 0,0 l/m 3,9 km/h (1 Bft) SW 225 0 min 11,2 C 27,6 C 6,0 km/h (2 Bft)
29.07.2021 16:35 24,7 C 20,2 C 24,2 C 27,5 C 27,5 C 2,8 C 44 % 45 % 1013,8 hPa 0,0 l/m 3,2 km/h (1 Bft) SO 135 0 min 11,6 C 27,5 C 1,8 km/h (1 Bft)
29.07.2021 16:40 24,7 C 20,2 C 24,0 C 27,3 C 27,3 C 2,6 C 43 % 44 % 1013,8 hPa 0,0 l/m 3,5 km/h (1 Bft) S-SW 202 0 min 11,3 C 27,3 C 6,1 km/h (2 Bft)
29.07.2021 16:45 24,2 C 20,2 C 23,6 C 26,1 C 26,1 C 1,9 C 43 % 45 % 1013,8 hPa 0,0 l/m 4,0 km/h (1 Bft) SW 225 0 min 10,8 C 26,1 C 7,7 km/h (2 Bft)
29.07.2021 16:50 24,1 C 20,2 C 23,5 C 25,7 C 25,7 C 1,6 C 43 % 45 % 1013,8 hPa 0,0 l/m 3,9 km/h (1 Bft) SO 135 0 min 10,7 C 25,7 C 4,3 km/h (1 Bft)
29.07.2021 16:55 24,3 C 20,2 C 23,7 C 26,8 C 26,8 C 2,5 C 44 % 46 % 1013,4 hPa 0,0 l/m 3,2 km/h (1 Bft) S 180 0 min 11,3 C 26,8 C 5,1 km/h (1 Bft)
29.07.2021 17:00 24,5 C 20,2 C 23,8 C 27,0 C 27,0 C 2,5 C 44 % 46 % 1013,4 hPa 0,0 l/m 3,4 km/h (1 Bft) S 180 0 min 11,4 C 27,0 C 8,7 km/h (2 Bft)
29.07.2021 17:05 24,3 C 20,2 C 23,8 C 26,7 C 26,7 C 2,4 C 43 % 46 % 1013,4 hPa 0,0 l/m 4,3 km/h (1 Bft) S-SO 157 0 min 10,9 C 26,7 C 2,6 km/h (1 Bft)
29.07.2021 17:10 24,4 C 20,2 C 23,6 C 26,4 C 26,4 C 2,0 C 43 % 45 % 1013,4 hPa 0,0 l/m 4,0 km/h (1 Bft) NW 315 0 min 11,0 C 26,4 C 2,6 km/h (1 Bft)
29.07.2021 17:15 24,1 C 20,2 C 23,3 C 25,4 C 25,4 C 1,3 C 43 % 45 % 1013,4 hPa 0,0 l/m 3,9 km/h (1 Bft) S 180 0 min 10,7 C 25,4 C 5,5 km/h (1 Bft)
29.07.2021 17:20 24,1 C 20,2 C 23,5 C 25,2 C 25,2 C 1,1 C 43 % 46 % 1013,4 hPa 0,0 l/m 4,0 km/h (1 Bft) S-SO 157 0 min 10,7 C 25,2 C 2,1 km/h (1 Bft)
29.07.2021 17:25 24,4 C 20,2 C 23,9 C 26,7 C 26,7 C 2,3 C 43 % 45 % 1013,4 hPa 0,0 l/m 3,4 km/h (1 Bft) SW 225 0 min 11,0 C 26,7 C 5,5 km/h (1 Bft)
29.07.2021 17:30 24,4 C 20,2 C 23,9 C 26,5 C 26,5 C 2,1 C 43 % 44 % 1013,4 hPa 0,0 l/m 3,1 km/h (1 Bft) O 90 0 min 11,0 C 26,5 C 2,3 km/h (1 Bft)
29.07.2021 17:35 24,7 C 20,2 C 24,2 C 26,7 C 26,7 C 2,0 C 43 % 43 % 1013,4 hPa 0,0 l/m 3,2 km/h (1 Bft) S 180 0 min 11,3 C 26,7 C 6,8 km/h (2 Bft)
29.07.2021 17:40 24,9 C 20,2 C 24,4 C 26,8 C 26,8 C 1,9 C 43 % 44 % 1013,4 hPa 0,0 l/m 2,7 km/h (1 Bft) SW 225 0 min 11,4 C 26,8 C 6,0 km/h (2 Bft)
29.07.2021 17:45 24,6 C 20,2 C 24,0 C 26,0 C 26,0 C 1,4 C 42 % 43 % 1013,4 hPa 0,0 l/m 4,0 km/h (1 Bft) O 90 0 min 10,8 C 26,0 C 6,4 km/h (2 Bft)
29.07.2021 17:50 24,3 C 20,3 C 23,6 C 25,3 C 25,3 C 1,0 C 42 % 44 % 1013,4 hPa 0,0 l/m 4,0 km/h (1 Bft) S-SW 202 0 min 10,6 C 25,3 C 7,1 km/h (2 Bft)
29.07.2021 17:55 24,3 C 20,3 C 23,7 C 25,4 C 25,4 C 1,1 C 43 % 45 % 1012,9 hPa 0,0 l/m 3,4 km/h (1 Bft) W 270 0 min 10,9 C 25,4 C 4,3 km/h (1 Bft)
29.07.2021 18:00 24,3 C 20,3 C 23,5 C 25,3 C 25,3 C 1,0 C 43 % 44 % 1012,9 hPa 0,0 l/m 3,2 km/h (1 Bft) W-SW 247 0 min 10,9 C 25,3 C 2,7 km/h (1 Bft)
29.07.2021 18:05 24,1 C 20,3 C 23,5 C 24,8 C 24,8 C 0,7 C 43 % 45 % 1012,9 hPa 0,0 l/m 3,5 km/h (1 Bft) S 180 0 min 10,7 C 24,8 C 3,7 km/h (1 Bft)
29.07.2021 18:10 24,1 C 20,3 C 23,4 C 24,8 C 24,8 C 0,7 C 43 % 46 % 1012,9 hPa 0,0 l/m 3,4 km/h (1 Bft) SW 225 0 min 10,7 C 24,8 C 6,8 km/h (2 Bft)
29.07.2021 18:15 24,1 C 20,3 C 23,5 C 24,7 C 24,7 C 0,6 C 44 % 45 % 1013,1 hPa 0,0 l/m 3,1 km/h (1 Bft) W-SW 247 0 min 11,1 C 24,7 C 2,6 km/h (1 Bft)
29.07.2021 18:20 24,1 C 20,3 C 23,7 C 25,3 C 25,3 C 1,2 C 44 % 44 % 1013,1 hPa 0,0 l/m 2,7 km/h (1 Bft) N-NO 22 0 min 11,1 C 25,3 C 2,3 km/h (1 Bft)
29.07.2021 18:25 24,3 C 20,3 C 23,9 C 25,9 C 25,9 C 1,6 C 43 % 45 % 1013,1 hPa 0,0 l/m 3,4 km/h (1 Bft) S-SW 202 0 min 10,9 C 25,9 C 7,6 km/h (2 Bft)
29.07.2021 18:30 24,5 C 20,3 C 23,9 C 25,9 C 25,9 C 1,4 C 44 % 45 % 1013,1 hPa 0,0 l/m 3,7 km/h (1 Bft) S 180 0 min 11,4 C 25,9 C 5,0 km/h (1 Bft)
29.07.2021 18:35 24,4 C 20,3 C 23,8 C 25,4 C 25,4 C 1,0 C 43 % 45 % 1013,2 hPa 0,0 l/m 3,4 km/h (1 Bft) SW 225 0 min 11,0 C 25,4 C 2,7 km/h (1 Bft)
29.07.2021 18:40 24,3 C 20,3 C 23,5 C 25,0 C 25,0 C 0,7 C 43 % 45 % 1013,2 hPa 0,0 l/m 3,2 km/h (1 Bft) S 180 0 min 10,9 C 25,0 C 3,1 km/h (1 Bft)
29.07.2021 18:45 24,1 C 20,3 C 23,5 C 24,8 C 24,8 C 0,7 C 44 % 46 % 1013,2 hPa 0,0 l/m 2,7 km/h (1 Bft) SW 225 0 min 11,1 C 24,8 C 2,4 km/h (1 Bft)
29.07.2021 18:50 24,1 C 20,4 C 23,4 C 25,0 C 25,0 C 0,9 C 44 % 47 % 1013,2 hPa 0,0 l/m 2,1 km/h (1 Bft) S 180 0 min 11,1 C 25,0 C 1,9 km/h (1 Bft)
29.07.2021 18:55 24,1 C 20,4 C 23,5 C 24,9 C 24,9 C 0,8 C 44 % 46 % 1012,1 hPa 0,0 l/m 2,3 km/h (1 Bft) SW 225 0 min 11,1 C 24,9 C 6,1 km/h (2 Bft)
29.07.2021 19:00 24,1 C 20,4 C 23,5 C 25,0 C 25,0 C 0,9 C 44 % 47 % 1012,1 hPa 0,0 l/m 2,7 km/h (1 Bft) S-SW 202 0 min 11,1 C 25,0 C 2,7 km/h (1 Bft)
29.07.2021 19:05 24,1 C 20,4 C 23,5 C 25,1 C 25,1 C 1,0 C 45 % 47 % 1012,1 hPa 0,0 l/m 2,7 km/h (1 Bft) S 180 0 min 11,4 C 25,1 C 1,9 km/h (1 Bft)
29.07.2021 19:10 24,1 C 20,4 C 23,5 C 25,1 C 25,1 C 1,0 C 45 % 46 % 1012,1 hPa 0,0 l/m 2,3 km/h (1 Bft) S-SW 202 0 min 11,4 C 25,1 C 3,7 km/h (1 Bft)
29.07.2021 19:15 24,0 C 20,4 C 23,4 C 25,0 C 25,0 C 1,0 C 45 % 47 % 1012,9 hPa 0,0 l/m 2,1 km/h (1 Bft) W-NW 292 0 min 11,3 C 25,0 C 0,0 km/h (0 Bft)
29.07.2021 19:20 23,9 C 20,4 C 23,1 C 24,5 C 24,5 C 0,6 C 45 % 47 % 1012,9 hPa 0,0 l/m 2,1 km/h (1 Bft) SW 225 0 min 11,2 C 24,5 C 2,3 km/h (1 Bft)
29.07.2021 19:25 23,7 C 20,4 C 22,9 C 24,4 C 24,4 C 0,7 C 45 % 48 % 1012,9 hPa 0,0 l/m 2,1 km/h (1 Bft) S-SW 202 0 min 11,1 C 24,4 C 2,3 km/h (1 Bft)
29.07.2021 19:30 23,6 C 20,4 C 22,7 C 24,2 C 24,2 C 0,6 C 46 % 48 % 1012,9 hPa 0,0 l/m 1,8 km/h (1 Bft) SW 225 0 min 11,3 C 24,2 C 0,0 km/h (0 Bft)
29.07.2021 19:35 23,4 C 20,4 C 22,3 C 23,6 C 23,6 C 0,2 C 46 % 49 % 1013,1 hPa 0,0 l/m 1,6 km/h (1 Bft) N-NW 337 0 min 11,1 C 23,6 C 3,2 km/h (1 Bft)
29.07.2021 19:40 23,3 C 20,4 C 22,3 C 23,3 C 23,3 C 0,0 C 46 % 49 % 1013,1 hPa 0,0 l/m 2,1 km/h (1 Bft) S 180 0 min 11,0 C 23,3 C 3,7 km/h (1 Bft)
29.07.2021 19:45 23,1 C 20,4 C 22,3 C 24,1 C 24,1 C 1,0 C 46 % 50 % 1013,1 hPa 0,0 l/m 2,4 km/h (1 Bft) S 180 0 min 10,8 C 24,1 C 2,7 km/h (1 Bft)
29.07.2021 19:50 23,2 C 20,4 C 22,1 C 24,2 C 24,2 C 1,0 C 47 % 50 % 1013,1 hPa 0,0 l/m 1,8 km/h (1 Bft) W-SW 247 0 min 11,3 C 24,2 C 2,7 km/h (1 Bft)
29.07.2021 19:55 23,1 C 20,4 C 22,0 C 23,6 C 23,6 C 0,5 C 47 % 50 % 1012,9 hPa 0,0 l/m 1,8 km/h (1 Bft) SW 225 0 min 11,2 C 23,6 C 3,1 km/h (1 Bft)
29.07.2021 20:00 22,9 C 20,4 C 21,9 C 23,2 C 23,2 C 0,3 C 47 % 51 % 1012,9 hPa 0,0 l/m 2,1 km/h (1 Bft) W-SW 247 0 min 11,0 C 23,2 C 1,8 km/h (1 Bft)
29.07.2021 20:05 22,8 C 20,4 C 21,7 C 23,4 C 23,4 C 0,6 C 47 % 51 % 1012,9 hPa 0,0 l/m 1,6 km/h (1 Bft) W-SW 247 0 min 10,9 C 23,4 C 1,8 km/h (1 Bft)
29.07.2021 20:10 22,7 C 20,4 C 21,7 C 23,4 C 23,4 C 0,7 C 48 % 52 % 1012,9 hPa 0,0 l/m 1,3 km/h (1 Bft) SW 225 0 min 11,1 C 23,4 C 2,1 km/h (1 Bft)
29.07.2021 20:15 22,6 C 20,4 C 21,3 C 22,6 C 22,6 C 0,0 C 48 % 52 % 1013,0 hPa 0,0 l/m 1,3 km/h (1 Bft) S 180 0 min 11,0 C 22,6 C 2,9 km/h (1 Bft)
29.07.2021 20:20 22,5 C 20,4 C 21,2 C 22,3 C 22,0 C 0,0 C 48 % 53 % 1013,0 hPa 0,0 l/m 1,3 km/h (1 Bft) SW 225 0 min 10,9 C 22,0 C 1,9 km/h (1 Bft)
29.07.2021 20:25 22,3 C 20,4 C 21,0 C 22,1 C 21,6 C 0,0 C 49 % 53 % 1013,0 hPa 0,0 l/m 1,1 km/h (1 Bft) SW 225 0 min 11,1 C 21,6 C 0,0 km/h (0 Bft)
29.07.2021 20:30 22,1 C 20,4 C 20,9 C 21,8 C 21,3 C 0,0 C 49 % 54 % 1013,0 hPa 0,0 l/m 1,0 km/h (0 Bft) SW 225 0 min 10,9 C 21,3 C 1,9 km/h (1 Bft)
29.07.2021 20:35 21,9 C 20,4 C 20,6 C 21,6 C 20,9 C 0,0 C 50 % 54 % 1012,9 hPa 0,0 l/m 0,5 km/h (0 Bft) SW 225 0 min 11,0 C 20,9 C 0,0 km/h (0 Bft)
29.07.2021 20:40 21,8 C 20,4 C 20,5 C 21,4 C 20,5 C 0,0 C 50 % 55 % 1012,9 hPa 0,0 l/m 0,2 km/h (0 Bft) SW 225 0 min 10,9 C 20,5 C 0,0 km/h (0 Bft)
29.07.2021 20:45 21,5 C 20,4 C 20,3 C 21,0 C 20,1 C 0,0 C 51 % 55 % 1012,9 hPa 0,0 l/m 0,0 km/h (0 Bft) SW 225 0 min 10,9 C 20,1 C 0,0 km/h (0 Bft)
29.07.2021 20:50 21,5 C 20,4 C 20,2 C 21,0 C 20,0 C 0,0 C 51 % 56 % 1012,9 hPa 0,0 l/m 0,0 km/h (0 Bft) SW 225 0 min 10,9 C 20,0 C 0,0 km/h (0 Bft)
29.07.2021 20:55 21,2 C 20,4 C 20,1 C 20,7 C 19,8 C 0,0 C 51 % 57 % 1013,2 hPa 0,0 l/m 0,0 km/h (0 Bft) SW 225 0 min 10,7 C 19,8 C 0,0 km/h (0 Bft)
29.07.2021 21:00 21,1 C 20,4 C 19,9 C 20,6 C 19,6 C 0,0 C 52 % 58 % 1013,2 hPa 0,0 l/m 0,0 km/h (0 Bft) SW 225 0 min 10,9 C 19,6 C 0,0 km/h (0 Bft)
29.07.2021 21:05 20,9 C 20,4 C 19,8 C 20,4 C 19,3 C 0,0 C 53 % 58 % 1013,2 hPa 0,0 l/m 0,0 km/h (0 Bft) SW 225 0 min 11,0 C 19,3 C 0,0 km/h (0 Bft)
29.07.2021 21:10 20,9 C 20,4 C 19,6 C 20,3 C 19,0 C 0,0 C 53 % 59 % 1013,2 hPa 0,0 l/m 0,0 km/h (0 Bft) SW 225 0 min 11,0 C 19,0 C 0,0 km/h (0 Bft)
29.07.2021 21:15 20,6 C 20,5 C 19,4 C 20,0 C 18,8 C 0,0 C 54 % 59 % 1013,2 hPa 0,0 l/m 0,0 km/h (0 Bft) SW 225 0 min 11,0 C 18,8 C 0,0 km/h (0 Bft)
29.07.2021 21:20 20,4 C 20,5 C 19,4 C 19,8 C 18,6 C 0,0 C 54 % 60 % 1013,2 hPa 0,0 l/m 0,0 km/h (0 Bft) SW 225 0 min 10,8 C 18,6 C 0,0 km/h (0 Bft)
29.07.2021 21:25 20,3 C 20,5 C 19,1 C 19,6 C 18,3 C 0,0 C 54 % 61 % 1013,2 hPa 0,0 l/m 0,0 km/h (0 Bft) SW 225 0 min 10,7 C 18,3 C 0,0 km/h (0 Bft)
29.07.2021 21:30 20,1 C 20,5 C 18,9 C 19,4 C 18,1 C 0,0 C 55 % 61 % 1013,2 hPa 0,0 l/m 0,0 km/h (0 Bft) SW 225 0 min 10,8 C 18,1 C 0,0 km/h (0 Bft)
29.07.2021 21:35 19,8 C 20,5 C 18,8 C 19,1 C 17,8 C 0,0 C 55 % 62 % 1013,3 hPa 0,0 l/m 0,0 km/h (0 Bft) SW 225 0 min 10,5 C 17,8 C 0,0 km/h (0 Bft)
29.07.2021 21:40 19,7 C 20,5 C 18,7 C 19,0 C 17,6 C 0,0 C 56 % 62 % 1013,3 hPa 0,0 l/m 0,0 km/h (0 Bft) SW 225 0 min 10,7 C 17,6 C 0,0 km/h (0 Bft)
29.07.2021 21:45 19,5 C 20,4 C 18,4 C 18,8 C 17,4 C 0,0 C 57 % 63 % 1013,3 hPa 0,0 l/m 0,0 km/h (0 Bft) SW 225 0 min 10,8 C 17,4 C 0,0 km/h (0 Bft)
29.07.2021 21:50 19,3 C 20,4 C 18,3 C 18,6 C 17,3 C 0,0 C 57 % 63 % 1013,3 hPa 0,0 l/m 0,0 km/h (0 Bft) SW 225 0 min 10,6 C 17,3 C 0,0 km/h (0 Bft)
29.07.2021 21:55 19,2 C 20,4 C 18,1 C 18,5 C 17,0 C 0,0 C 58 % 64 % 1013,4 hPa 0,0 l/m 0,0 km/h (0 Bft) SW 225 0 min 10,7 C 17,0 C 0,0 km/h (0 Bft)
29.07.2021 22:00 18,9 C 20,4 C 17,9 C 18,2 C 16,8 C 0,0 C 59 % 65 % 1013,4 hPa 0,0 l/m 0,0 km/h (0 Bft) SW 225 0 min 10,7 C 16,8 C 0,0 km/h (0 Bft)
29.07.2021 22:05 18,6 C 20,4 C 17,6 C 17,9 C 16,6 C 0,0 C 60 % 65 % 1013,4 hPa 0,0 l/m 0,0 km/h (0 Bft) SW 225 0 min 10,7 C 16,6 C 0,0 km/h (0 Bft)
29.07.2021 22:10 18,3 C 20,4 C 17,5 C 17,7 C 16,4 C 0,0 C 60 % 65 % 1013,4 hPa 0,0 l/m 0,0 km/h (0 Bft) SW 225 0 min 10,4 C 16,4 C 0,0 km/h (0 Bft)
29.07.2021 22:15 18,0 C 20,4 C 17,1 C 17,4 C 16,3 C 0,0 C 61 % 67 % 1013,5 hPa 0,0 l/m 0,0 km/h (0 Bft) SW 225 0 min 10,4 C 16,3 C 1,6 km/h (1 Bft)
29.07.2021 22:20 17,8 C 20,4 C 17,0 C 17,3 C 16,3 C 0,0 C 62 % 67 % 1013,5 hPa 0,0 l/m 0,2 km/h (0 Bft) SW 225 0 min 10,4 C 16,3 C 0,0 km/h (0 Bft)
29.07.2021 22:25 17,5 C 20,5 C 16,9 C 17,0 C 16,1 C 0,0 C 63 % 68 % 1013,5 hPa 0,0 l/m 0,2 km/h (0 Bft) SW 225 0 min 10,4 C 16,1 C 0,0 km/h (0 Bft)
29.07.2021 22:30 17,4 C 20,5 C 16,7 C 16,9 C 15,9 C 0,0 C 64 % 68 % 1013,5 hPa 0,0 l/m 0,0 km/h (0 Bft) SW 225 0 min 10,5 C 15,9 C 0,0 km/h (0 Bft)
29.07.2021 22:35 17,3 C 20,5 C 16,6 C 16,8 C 15,7 C 0,0 C 64 % 69 % 1013,4 hPa 0,0 l/m 0,0 km/h (0 Bft) SW 225 0 min 10,4 C 15,7 C 0,0 km/h (0 Bft)
29.07.2021 22:40 17,0 C 20,5 C 16,5 C 16,5 C 15,6 C 0,0 C 65 % 70 % 1013,4 hPa 0,0 l/m 0,0 km/h (0 Bft) SW 225 0 min 10,4 C 15,6 C 0,0 km/h (0 Bft)
29.07.2021 22:45 16,9 C 20,5 C 16,3 C 16,4 C 15,4 C 0,0 C 66 % 71 % 1013,4 hPa 0,0 l/m 0,0 km/h (0 Bft) SW 225 0 min 10,5 C 15,4 C 0,0 km/h (0 Bft)
29.07.2021 22:50 16,8 C 20,5 C 16,2 C 16,3 C 15,3 C 0,0 C 67 % 71 % 1013,4 hPa 0,0 l/m 0,0 km/h (0 Bft) SW 225 0 min 10,6 C 15,3 C 0,0 km/h (0 Bft)
29.07.2021 22:55 16,7 C 20,5 C 16,0 C 16,2 C 15,1 C 0,0 C 67 % 72 % 1013,5 hPa 0,0 l/m 0,0 km/h (0 Bft) SW 225 0 min 10,5 C 15,1 C 0,0 km/h (0 Bft)
29.07.2021 23:00 16,5 C 20,4 C 15,9 C 16,0 C 15,0 C 0,0 C 68 % 72 % 1013,5 hPa 0,0 l/m 0,0 km/h (0 Bft) SW 225 0 min 10,6 C 15,0 C 0,0 km/h (0 Bft)
29.07.2021 23:05 16,4 C 20,4 C 15,8 C 15,9 C 14,9 C 0,0 C 68 % 73 % 1013,5 hPa 0,0 l/m 0,0 km/h (0 Bft) SW 225 0 min 10,5 C 14,9 C 0,0 km/h (0 Bft)
29.07.2021 23:10 16,3 C 20,4 C 15,7 C 15,8 C 14,8 C 0,0 C 69 % 74 % 1013,5 hPa 0,0 l/m 0,0 km/h (0 Bft) SW 225 0 min 10,6 C 14,8 C 0,0 km/h (0 Bft)
29.07.2021 23:15 16,0 C 20,4 C 15,6 C 15,5 C 14,6 C 0,0 C 69 % 74 % 1013,6 hPa 0,0 l/m 0,0 km/h (0 Bft) SW 225 0 min 10,3 C 14,6 C 0,0 km/h (0 Bft)
29.07.2021 23:20 15,9 C 20,4 C 15,5 C 15,4 C 14,5 C 0,0 C 70 % 74 % 1013,6 hPa 0,0 l/m 0,0 km/h (0 Bft) SW 225 0 min 10,4 C 14,5 C 0,0 km/h (0 Bft)
29.07.2021 23:25 15,8 C 20,4 C 15,3 C 15,3 C 14,4 C 0,0 C 70 % 75 % 1013,6 hPa 0,0 l/m 0,0 km/h (0 Bft) SW 225 0 min 10,3 C 14,4 C 0,0 km/h (0 Bft)
29.07.2021 23:30 15,6 C 20,4 C 15,2 C 15,1 C 14,2 C 0,0 C 70 % 75 % 1013,6 hPa 0,0 l/m 0,0 km/h (0 Bft) SW 225 0 min 10,1 C 14,2 C 0,0 km/h (0 Bft)
29.07.2021 23:35 15,6 C 20,4 C 15,2 C 15,1 C 14,0 C 0,0 C 71 % 76 % 1013,6 hPa 0,0 l/m 0,0 km/h (0 Bft) SW 225 0 min 10,4 C 14,0 C 0,0 km/h (0 Bft)
29.07.2021 23:40 15,4 C 20,4 C 15,1 C 14,9 C 14,0 C 0,0 C 72 % 76 % 1013,6 hPa 0,0 l/m 0,0 km/h (0 Bft) SW 225 0 min 10,4 C 14,0 C 0,0 km/h (0 Bft)
29.07.2021 23:45 15,3 C 20,4 C 14,9 C 14,8 C 13,9 C 0,0 C 72 % 76 % 1013,6 hPa 0,0 l/m 0,0 km/h (0 Bft) SW 225 0 min 10,3 C 13,9 C 0,0 km/h (0 Bft)
29.07.2021 23:50 15,2 C 20,3 C 14,8 C 14,8 C 13,9 C 0,0 C 73 % 77 % 1013,6 hPa 0,0 l/m 0,0 km/h (0 Bft) SW 225 0 min 10,4 C 13,9 C 0,0 km/h (0 Bft)
29.07.2021 23:55 15,1 C 20,3 C 14,7 C 14,7 C 13,8 C 0,0 C 73 % 78 % 1013,3 hPa 0,0 l/m 0,0 km/h (0 Bft) SW 225 0 min 10,3 C 13,8 C 0,0 km/h (0 Bft)
_ Min-Zeit 23:55 09:35 23:55 23:55 23:55 00:00 17:45 16:05 03:55 - 00:00 - - - 23:30 23:55 00:00
Minimum _ 15,1 C 19,8 C 14,7 C 14,7 C 13,8 C 0,0 C 42 % 43 % 1011,1 hPa - 0,0 km/h (0 Bft) - - - 10,1 C 13,8 C 0,0 km/h (0 Bft)
_ Max-Zeit 16:20 01:10 16:20 16:20 16:20 07:45 02:50 02:45 16:15 00:00 14:10 - - 07:15 07:50 16:20 15:00
Maximum _ 25,2 C 20,9 C 24,9 C 30,5 C 30,5 C 7,4 C 86 % 88 % 1013,9 hPa 0,0 l/m 6,9 km/h
SW (2 Bft)
- - 5 min 16,0 C 30,5 C 21,4 km/h
S-SW (4 Bft)
Durchschnitt _ 20,5 C 20,3 C 19,8 C 22,0 C 21,7 C 1,7 C 64 % 67 % 1012,4 hPa #0,0 l/m 2,0 km/h (1 Bft) SW - #5:20 h 12,9 C 21,7 C 2,9 km/h (1 Bft)
2021 www.wetterstation-wechselburg.de